Weather History for KIKW - November, 2012

Change the Weather History Date:

Thursday, November 8, 2012

  Actual Average (KMBS) Record (KMBS)
Temperature  
Mean Temperature 32 °F 42 °F  
Max Temperature 45 °F 50 °F 62 °F (2002)
Min Temperature 20 °F 34 °F 19 °F (2003)
Degree Days  
Heating Degree Days 32    
Month to date heating degree days  
Since 1 July heating degree days  
Cooling Degree Days 0    
Month to date cooling degree days  
Year to date cooling degree days  
Moisture  
Dew Point 28 °F    
Average Humidity 83    
Maximum Humidity 97    
Minimum Humidity 60    
Precipitation  
Precipitation 0.00 in 0.09 in 0.17 in (2011)
Month to date precipitation 0.74  
Year to date precipitation 27.72  
Snow  
Snow 0.00 in - - ()
Month to date snowfall  
Since 1 July snowfall  
Since 1 September snowfall  
Snow Depth -    
Sea Level Pressure  
Sea Level Pressure 30.15 in    
Wind  
Wind Speed 1 mph (SSW)    
Max Wind Speed 7 mph    
Max Gust Speed -    
Visibility 10 miles    
Events      
T = Trace of Precipitation, MM = Missing Value Source: NWS Daily Summary

Daily Weather History Graph

Daily Weather History Graph

Search for Another Location

Airport or City:

Trip Planner

Search our weather history database for the weather conditions in past years. The results will help you decide how hot, cold, wet, or windy it might be!

Date:

Astronomy

Nov. 08, 2012 Rise Set
Actual Time 7:22 AM EST 5:18 PM EST
Civil Twilight 6:52 AM EST 5:48 PM EST
Nautical Twilight 6:17 AM EST 6:23 PM EST
Astronomical Twilight 5:44 AM EST 6:56 PM EST
Moon 1:06 AM EST (11/8) 2:08 PM EST (11/8)
Length of Visible Light 10h 56m
Length of Day
9h 55m
Waning Crescent, 33% of the Moon is Illuminated
Nov 8
Waning Crescent
Nov 13
New
Nov 20
First Quarter
Nov 28
Full
Dec 6
Last Quarter

Hourly Weather History & Observations

Time (EST) Temp. Windchill Dew Point Humidity Pressure Visibility Wind Dir Wind Speed Gust Speed Precip Events Conditions
12:13 AM 23.9 °F - 23.2 °F 97% 30.16 in 10.0 mi Calm Calm - N/A   Clear
12:33 AM 23.7 °F - 23.0 °F 97% 30.16 in 10.0 mi Calm Calm - N/A   Clear
12:53 AM 23.5 °F - 22.8 °F 97% 30.17 in 10.0 mi Calm Calm - N/A   Clear
1:13 AM 23.4 °F - 22.6 °F 97% 30.16 in 10.0 mi Calm Calm - N/A   Clear
1:33 AM 21.7 °F - 20.8 °F 96% 30.16 in 10.0 mi Calm Calm - N/A   Clear
1:53 AM 22.5 °F - 21.6 °F 96% 30.16 in 10.0 mi Calm Calm - N/A   Clear
2:13 AM 22.6 °F - 21.9 °F 97% 30.16 in 10.0 mi Calm Calm - N/A   Clear
2:33 AM 22.5 °F - 21.4 °F 96% 30.17 in 10.0 mi Calm Calm - N/A   Clear
2:53 AM 21.9 °F - 21.0 °F 96% 30.17 in 10.0 mi Calm Calm - N/A   Clear
3:13 AM 22.1 °F - 21.2 °F 96% 30.17 in 10.0 mi Calm Calm - N/A   Clear
3:33 AM 21.4 °F - 20.5 °F 96% 30.17 in 10.0 mi Calm Calm - N/A   Clear
3:53 AM 21.4 °F - 20.3 °F 96% 30.17 in 10.0 mi Calm Calm - N/A   Clear
4:13 AM 21.2 °F - 20.3 °F 96% 30.17 in 10.0 mi Calm Calm - N/A   Clear
4:33 AM 21.0 °F - 19.9 °F 96% 30.18 in 10.0 mi Calm Calm - N/A   Clear
4:53 AM 21.0 °F - 19.9 °F 96% 30.18 in 10.0 mi Calm Calm - N/A   Clear
5:13 AM 20.7 °F - 19.6 °F 96% 30.18 in 10.0 mi Calm Calm - N/A   Clear
5:33 AM 20.7 °F - 19.6 °F 96% 30.19 in 10.0 mi Calm Calm - N/A   Clear
5:53 AM 20.7 °F - 19.6 °F 96% 30.19 in 10.0 mi Calm Calm - N/A   Clear
6:13 AM 20.7 °F - 19.6 °F 96% 30.19 in 10.0 mi Calm Calm - N/A   Clear
6:33 AM 20.5 °F - 19.4 °F 96% 30.19 in 10.0 mi Calm Calm - N/A   Clear
6:53 AM 20.5 °F - 19.4 °F 96% 30.19 in 10.0 mi Calm Calm - N/A   Clear
7:13 AM 20.1 °F - 19.0 °F 96% 30.20 in 10.0 mi Calm Calm - N/A   Clear
7:53 AM 21.6 °F - 20.5 °F 96% 30.21 in 10.0 mi Calm Calm - N/A   Mostly Cloudy
8:13 AM 24.4 °F - 23.4 °F 96% 30.21 in 7.0 mi Calm Calm - N/A   Overcast
8:34 AM 26.1 °F - 25.0 °F 96% 30.21 in 7.0 mi Calm Calm - N/A   Overcast
8:53 AM 28.2 °F - 26.6 °F 94% 30.21 in 7.0 mi Calm Calm - N/A   Overcast
9:13 AM 29.3 °F - 27.3 °F 92% 30.21 in 7.0 mi Calm Calm - N/A   Overcast
9:34 AM 30.4 °F - 28.6 °F 93% 30.21 in 7.0 mi Calm Calm - N/A   Overcast
9:53 AM 31.6 °F - 30.0 °F 94% 30.21 in 7.0 mi Calm Calm - N/A   Overcast
10:13 AM 32.9 °F - 31.5 °F 94% 30.21 in 7.0 mi Calm Calm - N/A   Overcast
10:33 AM 33.8 °F - 32.0 °F 93% 30.21 in 7.0 mi Calm Calm - N/A   Overcast
10:53 AM 34.7 °F - 31.8 °F 89% 30.21 in 10.0 mi Calm Calm - N/A   Overcast
11:13 AM 36.3 °F 33.7 °F 31.8 °F 84% 30.20 in 10.0 mi South 3.5 mph - N/A   Overcast
11:33 AM 37.6 °F 35.1 °F 32.2 °F 81% 30.20 in 10.0 mi South 3.5 mph - N/A   Overcast
11:54 AM 39.2 °F 37.0 °F 32.0 °F 75% 30.18 in 7.0 mi South 3.5 mph - N/A   Overcast
12:13 PM 40.3 °F 38.2 °F 32.0 °F 72% 30.17 in 10.0 mi SSW 3.5 mph - N/A   Overcast
12:33 PM 41.2 °F 37.3 °F 32.0 °F 70% 30.17 in 10.0 mi SW 5.8 mph - N/A   Overcast
12:54 PM 42.1 °F 38.4 °F 32.0 °F 67% 30.17 in 10.0 mi SW 5.8 mph - N/A   Overcast
1:13 PM 42.1 °F 40.2 °F 31.8 °F 67% 30.16 in 10.0 mi South 3.5 mph - N/A   Overcast
1:33 PM 43.3 °F 39.9 °F 32.0 °F 64% 30.15 in 10.0 mi SSW 5.8 mph - N/A   Overcast
1:54 PM 43.7 °F 41.1 °F 31.8 °F 63% 30.15 in 10.0 mi WSW 4.6 mph - N/A   Overcast
2:13 PM 44.1 °F 40.1 °F 32.0 °F 63% 30.14 in 10.0 mi SSW 6.9 mph - N/A   Overcast
2:33 PM 44.4 °F 42.0 °F 32.0 °F 62% 30.14 in 10.0 mi SSW 4.6 mph - N/A   Overcast
2:54 PM 44.2 °F 41.0 °F 31.6 °F 61% 30.14 in 10.0 mi SSW 5.8 mph - N/A   Overcast
3:13 PM 44.6 °F 42.2 °F 31.8 °F 61% 30.13 in 10.0 mi SSW 4.6 mph - N/A   Overcast
3:34 PM 44.8 °F 41.6 °F 32.0 °F 61% 30.13 in 10.0 mi South 5.8 mph - N/A   Overcast
3:53 PM 45.0 °F 42.6 °F 32.2 °F 61% 30.13 in 10.0 mi SW 4.6 mph - N/A   Overcast
4:13 PM 45.0 °F 43.5 °F 32.0 °F 60% 30.12 in 10.0 mi SSE 3.5 mph - N/A   Overcast
4:34 PM 44.6 °F - 32.0 °F 61% 30.12 in 10.0 mi Calm Calm - N/A   Overcast
4:53 PM 44.6 °F - 32.0 °F 61% 30.12 in 7.0 mi Calm Calm - N/A   Overcast
5:13 PM 44.1 °F - 32.2 °F 63% 30.12 in 10.0 mi Calm Calm - N/A   Overcast
5:34 PM 43.7 °F - 32.0 °F 63% 30.12 in 10.0 mi Calm Calm - N/A   Overcast
5:53 PM 42.1 °F - 32.5 °F 69% 30.12 in 10.0 mi Calm Calm - N/A   Overcast
6:13 PM 40.6 °F - 32.5 °F 73% 30.12 in 10.0 mi Calm Calm - N/A   Overcast
6:34 PM 39.7 °F - 32.4 °F 75% 30.12 in 10.0 mi Calm Calm - N/A   Overcast
6:53 PM 39.7 °F - 33.3 °F 78% 30.11 in 10.0 mi Calm Calm - N/A   Overcast
7:13 PM 39.7 °F - 32.2 °F 74% 30.11 in 10.0 mi Calm Calm - N/A   Overcast
7:34 PM 39.4 °F 37.2 °F 32.7 °F 77% 30.10 in 10.0 mi South 3.5 mph - N/A   Overcast
7:53 PM 39.2 °F - 32.0 °F 75% 30.10 in 10.0 mi Calm Calm - N/A   Mostly Cloudy
8:14 PM 36.7 °F - 31.6 °F 82% 30.10 in 10.0 mi Calm Calm - N/A   Mostly Cloudy
8:33 PM 35.4 °F - 31.8 °F 87% 30.11 in 10.0 mi Calm Calm - N/A   Overcast
8:53 PM 35.8 °F - 31.8 °F 86% 30.10 in 10.0 mi Calm Calm - N/A   Overcast
9:14 PM 36.0 °F - 32.5 °F 87% 30.11 in 10.0 mi Calm Calm - N/A   Overcast
9:33 PM 37.4 °F - 32.9 °F 84% 30.11 in 10.0 mi Calm Calm - N/A   Overcast
9:53 PM 38.8 °F 36.5 °F 32.9 °F 79% 30.11 in 10.0 mi SW 3.5 mph - N/A   Overcast
10:13 PM 40.1 °F 38.0 °F 33.1 °F 76% 30.10 in 10.0 mi SW 3.5 mph - N/A   Overcast
10:33 PM 39.7 °F 37.6 °F 32.4 °F 75% 30.10 in 10.0 mi SW 3.5 mph - N/A   Overcast
10:54 PM 39.2 °F - 32.2 °F 76% 30.10 in 10.0 mi Calm Calm - N/A   Mostly Cloudy
11:13 PM 38.1 °F - 32.0 °F 79% 30.10 in 7.0 mi Calm Calm - N/A   Mostly Cloudy
11:33 PM 38.5 °F - 32.7 °F 80% 30.10 in 7.0 mi Calm Calm - N/A   Overcast
11:53 PM 39.0 °F - 33.3 °F 80% 30.10 in 7.0 mi Calm Calm - N/A   Scattered Clouds